Regional Weather Roundup
Issued by NWS

Home | Current Version | Previous Version | Graphics & Text | Print | Product List | Glossary On
Versions: 1 2 3 4 5 6 7 8 9 10 11 12 13 14 15 16 17 18 19 20 21 22 23 24 25 26 27 28 29 30 31 32 33 34 35 36 37 38 39 40 41 42 43 44 45 46 47 48 49
000
ASUS45 KPSR 252210
RWRAZ

ARIZONA HOURLY REGIONAL WEATHER ROUNDUP
NATIONAL WEATHER SERVICE PHOENIX AZ
300 PM MST SUN JUN 25 2017

NOTE: FAIR INDICATES FEW OR NO CLOUDS BELOW 12,000 FEET WITH NO
SIGNIFICANT WEATHER AND/OR OBSTRUCTIONS TO VISIBILITY.

AZZ001>003-036-252300-
NORTHWEST ARIZONA

CITY           SKY/WX    TMP DP  RH WIND       PRES   REMARKS
BULLHEAD CITY  SUNNY    118  28   4 S8G14     29.71F HX 108
KINGMAN        MOSUNNY  107  37   9 SW17G25   29.99F HX 101
$$

AZZ004>008-015-016-018-252300-
NORTH CENTRAL ARIZONA

CITY           SKY/WX    TMP DP  RH WIND       PRES   REMARKS
GRAND CANYON   LGT RAIN  75  41  29 VRB7G30   30.36R
PRESCOTT       MOSUNNY   98  34  10 W14G23    30.14F
FLAGSTAFF      TSTM      60  50  69 N14G36    30.41R
PAYSON         MOSUNNY   95  45  17 SW8       30.18F
$$

AZZ009>014-017-252300-
NORTHEAST ARIZONA

CITY           SKY/WX    TMP DP  RH WIND       PRES   REMARKS
WINSLOW        CLOUDY    94  33  11 N15G23    30.14R
SAINT JOHNS    CLOUDY    87  40  19 S17G31    30.22R
WINDOW ROCK    PTSUNNY   89  29  11 NW15      30.25F
SHOW LOW       PTSUNNY   79  37  22 N13       30.29S
$$

AZZ540-542>544-546-548-252300-
GREATER PHOENIX AREA

CITY           SKY/WX    TMP DP  RH WIND       PRES   REMARKS
PHOENIX        MOSUNNY  113  45  10 SW12      29.78F HX 108
BUCKEYE          N/A    113  41   9 SW7       29.79F HX 107
GLENDALE       MOSUNNY  115  43   9 S9G24     29.81F HX 109
LUKE AFB       SUNNY    112  42   9 SW15      29.78F HX 106
DEER VALLEY    SUNNY    110  43  10 SW7G18    29.82F HX 104
SCOTTSDALE     SUNNY    111  42  10 W9        29.84F HX 105
MESA-FALCON    MOSUNNY  113  48  11 SW7G14    29.82F HX 109
MESA-GATEWAY   MOSUNNY  111  43  10 W13G18    29.82F HX 106
CHANDLER       SUNNY    111  39   8 SW9       29.80F HX 105
$$

AZZ539-553-252300-
SOUTHWEST MARICOPA COUNTY AND PINAL COUNTY

CITY           SKY/WX    TMP DP  RH WIND       PRES   REMARKS
CASA GRANDE      N/A    N/A N/A N/A MISG        N/A
GILA BEND      FAIR     116  40   8 W16G22    29.77F HX 108
$$

AZZ503-504-507>509-252300-
SOUTHEAST ARIZONA

CITY           SKY/WX    TMP DP  RH WIND       PRES   REMARKS
TUCSON         MOSUNNY  107  45  12 W7        29.93F HX 102
DAVIS-MONTHAN  SUNNY    107  44  11 W9        29.92F HX 102
RYAN FIELD     SUNNY    109  39   9 N12G18    29.91  HX 103
NOGALES        LGT RAIN  91  53  27 W7        30.06S
SIERRA VISTA   CLOUDY    93  46  19 SW9       30.14F
DOUGLAS        MOSUNNY  102  39  11 N18G26    30.05F
SAFFORD        MOSUNNY   99  46  16 CALM      29.99F
$$

AZZ532-252300-
SOUTHWEST ARIZONA

CITY           SKY/WX    TMP DP  RH WIND       PRES   REMARKS
YUMA           SUNNY    113  52  13 S15       29.76F HX 110
$$

CAZ041-043-047-048-061-525>527-560>570-252300-
SOUTHERN CALIFORNIA

CITY           SKY/WX    TMP DP  RH WIND       PRES   REMARKS
DOWNTOWN L.A.  SUNNY     81  60  48 VRB3      29.87R
L.A. AIRPORT   MOSUNNY   73  60  63 W22G28    29.89S
SAN DIEGO      MOSUNNY   74  63  68 NW12      29.91F
BURBANK        SUNNY    111  24   5 W18G26    29.85S HX 102
ONTARIO        MOSUNNY  107  54  17 W17G24    29.85F HX 105
RIVERSIDE      SUNNY    108  58  19 SW14      29.85S HX 108
PALM SPRINGS   SUNNY    121  23   3 NW21      29.75F HX 109
EL CENTRO NAS  SUNNY    115  48  11 E8        29.72F HX 111
IMPERIAL       CLOUDY   115  57  15 E9        29.71F HX 115
BLYTHE         PTSUNNY  116  45   9 S16       29.73F HX 110
NEEDLES        SUNNY    119  18   3 NW10      29.73F HX 107
$$

NVZ020-UTZ003-252300-
SOUTHERN NEVADA-UTAH

CITY           SKY/WX    TMP DP  RH WIND       PRES   REMARKS
LAS VEGAS      MOSUNNY  112  13   3 NE7       29.86F HX 102
SALT LAKE CITY MOSUNNY   92  36  14 CALM      30.13F
$$

NMZ009-TXZ055-252300-
NEW MEXICO-WEST TEXAS

CITY           SKY/WX    TMP DP  RH WIND       PRES   REMARKS
ALBUQUERQUE    CLOUDY    88  46  23 SW3       30.18F
EL PASO        MOSUNNY   94  55  26 SE8       30.10F
$$


........................KEY........................
SKY/WX - SKY CONDITION/WEATHER
TMP    - TEMPERATURE IN FAHRENHEIT
DP     - DEW POINT IN FAHRENHEIT
RH     - RELATIVE HUMIDITY IN PERCENT
WIND   - DIRECTION AND SPEED IN MILES PER HOUR (MPH)
VRB    - VARIABLE WIND DIRECTION
PRES   - MEAN SEA LEVEL PRESSURE IN INCHES OF MERCURY
         F - FALLING PRESSURE   R - RISING PRESSURE
         S - STEADY PRESSURE
VSB    - VISIBILITY IN MILES
HX     - HEAT INDEX IN FAHRENHEIT
WCI    - WIND CHILL INDEX IN FAHRENHEIT
TC     - TEMPERATURE IN CELSIUS WHICH IS ALSO KNOWN AS
         TEMPERATURE IN CENTIGRADE
AFB    - AIR FORCE BASE
         LUKE AFB IS LUKE AIR FORCE BASE
         DAVIS-MONTHAN IS DAVIS-MONTHAN AIR FORCE BASE
NAS    - NAVAL AIR STATION
         EL CENTRO NAS IS EL CENTRO NAVAL AIR STATION
N/A    - NOT AVAILABLE





USA.gov is the U.S. government's official web portal to all federal, state and local government web resources and services.